www.pogodaiklimat.ru

Погода и климат >> Архив погоды >> Кипр >> Akrotiri


ПОГОДА в Akrotiri

  • Прогноз погоды в Akrotiri
  • Монитор погоды в Akrotiri
  • Климат города

АРХИВ ПОГОДЫ в Akrotiri

Время (UTC), дата Ветер
(напр.,м/с)
 
Видим.   Явления Облачность Т
(С)
Тd
(С)
f
(%)
Тe
(С)
Тes
(С)
Комфортность P
(гПа)
Po
(гПа)
Тmin
(С)
Tmax
(С)
R
(мм)
R24
(мм)
S
(см)
04 12.02 З 3 20 км 9/3 900 м
[Sc Cs]
+15.0 +10.8 76 +14 +14 1010.5 1007.4
05 12.02 З 3 20 км 10/1 750 м
[Sc As op]
+15.0 +10.7 75 +14 +15 1011.0 1007.9
06 12.02 З 3 30 км 9/5 750 м
[Cu Sc Ac trans Cs]
+15.3 +11.4 78 +15 +15 1012.0 1008.8 +14.8
07 12.02 З 4 18 км 9/6 750 м
[Cu Sc Cs]
+16.2 +10.2 68 +15 +17 1011.8 1008.7
08 12.02 З 5 25 км 10/6 720 м
[Cu Sc Cs]
+16.4 +10.8 69 +16 +17 1011.9 1008.8
09 12.02 З 5 25 км 10/5 750 м
[Cu Sc Ac trans Cs]
+16.5 +10.7 69 +16 +17 1012.3 1009.2
10 12.02 З 5 30 км 10/5 700 м
[Cu Sc Ac inh Cs]
+16.7 +11.0 69 +16 +17 1011.8 1008.7
11 12.02 З 5 30 км 10/5 750 м
[Cu Sc Ac trans Cs]
+17.1 +9.0 59 +16 +18 1011.2 1008.1
12 12.02 З 6 30 км 10/3 750 м
[Cu hum Ac trans Cs]
+17.0 +9.6 62 +16 +17 1011.2 1008.1
13 12.02 З 5 н/о н/о +16.7 +9.9 64 +16 +16 1011.2 1008.1
14 12.02 З 5 30 км 9/4 750 м
[Cu Sc Ac trans Cs]
+16.5 +9.7 64 +16 +16 1011.2 1008.1
15 12.02 З 5 30 км 9/1 750 м
[Cu hum Ac trans Ci sp]
+16.0 +9.6 66 +15 +15 1011.4 1008.3
16 12.02 З 4 30 км 8/1 750 м
[Cu Sc Ac trans Ci sp]
+15.6 +9.4 67 +15 +15 1011.7 1008.6
17 12.02 З 3 30 км 6/3 900 м
[Cu Sc Ci sp]
+15.3 +9.7 69 +15 +15 1012.3 1009.2
18 12.02 СЗ 3 40 км 3/3 870 м
[Cu Sc]
+14.0 +10.2 78 +13 +13 1012.5 1009.3 +17.2
19 12.02 З 4 40 км 3/3 750 м
[Cu Sc]
+13.8 +9.6 76 +12 +12 1013.0 1009.9
20 12.02 СЗ 3 40 км 4/1 660 м
[Cu hum Ci fib]
+12.7 +8.8 77 +12 +12 1012.9 1009.8
21 12.02 СЗ 2 40 км 3/1 660 м
[Cu hum Ci fib]
+12.2 +8.8 80 +12 +12 1012.9 1009.7
22 12.02 СЗ 1 40 км 3/1 900 м
[Cu hum Ci fib]
+10.5 +7.6 82 +10 +10 1012.7 1009.5
23 12.02 СЗ 1 40 км 3/1 900 м
[Cu hum Ci fib]
+9.9 +7.6 86 +9 +9 1012.6 1009.4
00 13.02 СЗ 2 40 км 3/1 900 м
[Cu hum Ci fib]
+10.0 +7.7 86 +9 +9 1012.2 1009.1
01 13.02 СЗ 1 40 км в посл. час ливневой дождь 3/3 900 м
[Cu hum Ac trans Ci fib]
+9.8 +7.3 84 +9 +9 1012.0 1008.9
02 13.02 СЗ 2 40 км 1/1 750 м
[Cu hum Ci fib]
+9.7 +7.9 89 +8 +8 1011.8 1008.7
03 13.02 З 2 40 км {ливн. осадки} 4/1 900 м
[Cu hum Ac trans Ci fib]
+10.0 +8.0 87 +9 +9 1012.0 1008.8
04 13.02 СЗ 1 40 км гроза без осадков 6/4 700 м
[Cb cap Ci fib]
+10.8 +8.6 86 +10 +10 1012.4 1009.2
05 13.02 СЗ 2 30 км в посл. час гроза 9/4 750 м
[Sc diur, vesp As op]
+11.2 +8.6 84 +10 +10 1012.8 1009.6
06 13.02 З 2 30 км в посл. час ливневой дождь {гроза} 9/5 600 м
[Cb cap Ac cuf]
+12.7 +8.9 78 +12 +12 1013.3 1010.2 0.0
07 13.02 З 3 40 км 9/1 750 м
[Cb cap Ac cuf Cs]
+14.5 +9.3 71 +14 +16 1013.7 1010.6
08 13.02 З 5 40 км 3/3 750 м
[Cb cap Ci sp]
+15.8 +8.4 61 +15 +17 1014.1 1011.0
09 13.02 СЗ 3 40 км в посл. час ливневой дождь 5/1 750 м
[Cb cap Ac cuf Ci sp]
+14.3 +10.2 76 +14 +20 1014.6 1011.5
10 13.02 З 5-13
{13}
30 км в посл. час ливневой дождь 3/3 900 м
[Sc diur, vesp Ci sp]
+16.2 +9.6 65 +15 +19 1014.0 1010.9
11 13.02 З 10
{15}
35 км 1/1 1200 м
[Cu hum]
+17.0 +8.7 58 +15 +16 1013.8 1010.7
12 13.02 З 9 30 км {ливн. осадки} 1/1 1000 м
[Cu hum]
+17.0 +8.3 57 +16 +16 1014.0 1010.9 2
13 13.02 З 9-14
{15}
30 км 1/1 1200 м
[Sc diur, vesp]
+16.8 +8.5 58 +15 +16 1014.3 1011.2
14 13.02 З 10
{16}
40 км 1/1 1200 м
[Sc]
+16.6 +7.7 56 +15 +15 1014.8 1011.7
15 13.02 З 9
{16}
30 км 1/1 1200 м
[Cu hum]
+16.0 +7.4 57 +14 +14 1015.4 1012.3
16 13.02 З 8
{13}
30 км 1/1 1200 м
[Sc diur, vesp]
+15.4 +4.6 48 +14 +14 1016.2 1013.0
17 13.02 З 6 30 км ясно +14.7 +5.4 54 +13 +13 1017.1 1014.0
18 13.02 СЗ 3 30 км ясно +12.7 +6.6 66 +11 +11 1017.7 1014.6 +17.1 2
19 13.02 З 4 30 км 1/1 1440 м
[Sc]
+12.4 +6.7 68 +11 +11 1018.1 1014.9
20 13.02 З 4 30 км 1/1 1260 м
[Sc]
+12.3 +6.0 65 +11 +11 1018.3 1015.1
21 13.02 З 4 30 км 3/3 1200 м
[Sc]
+12.6 +6.3 65 +11 +11 1018.4 1015.2
22 13.02 З 2 30 км 3/3 1110 м
[Sc]
+12.4 +7.4 72 +12 +12 1018.6 1015.4
23 13.02 СЗ 2 н/о н/о +11.3 +7.7 78 +11 +11 1018.4 1015.2
00 14.02 З 3 н/о н/о +13.1 +7.9 71 +12 +12 1018.4 1015.3
01 14.02 З 3 30 км 3/3 1050 м
[Sc]
+12.6 +8.3 75 +11 +11 1018.6 1015.4
02 14.02 З 1 н/о н/о +11.6 +7.9 78 +11 +11 1018.8 1015.6
03 14.02 СЗ 1 30 км 6/6 1080 м
[Sc]
+11.9 +8.1 78 +12 +12 1018.7 1015.6
04 14.02 С 2 30 км 8/8 900 м
[Sc]
+12.1 +8.5 79 +12 +12 1019.1 1015.9
05 14.02 З 1 30 км 9/1 1020 м
[Cu hum Cs]
+11.3 +8.6 83 +11 +11 1019.4 1016.2
06 14.02 СВ 1 40 км 9/1 1170 м
[Cu hum Cs]
+12.1 +8.7 80 +13 +15 1020.3 1017.1 +11.0
07 14.02 С 2 40 км 9/1 1200 м
[Cu hum Cs]
+13.9 +8.4 69 +14 +18 1020.9 1017.8
08 14.02 З 3 40 км 9/3 1050 м
[Cu hum Cs]
+16.5 +7.9 57 +16 +20 1021.1 1018.0
09 14.02 ЮЗ 4 40 км 10/3 1050 м
[Sc diur, vesp Ac trans Cs]
+17.1 +6.5 50 +17 +19 1021.1 1018.0
10 14.02 ЮЗ 4 40 км 10/6 1050 м
[Sc diur, vesp Ci fib]
+17.2 +8.2 55 +17 +19 1020.6 1017.5
11 14.02 ЮЗ 4 40 км слабый ливневой дождь 10/9 1050 м
[Cu Sc Ac trans]
+16.5 +7.4 55 +16 +16 1020.4 1017.3
12 14.02 З 5 20 км слабый ливневой дождь 10/10 600 м
[Cu Sc]
+16.1 +9.9 67 +15 +15 1020.2 1017.1 0.0
13 14.02 З 2 40 км в посл. час ливневой дождь 10/10 750 м
[Cu Sc]
+13.6 +12.2 91 +13 +13 1020.2 1017.0
14 14.02 С 2 30 км 9/3 750 м
[Cu Sc Ac trans Cs]
+14.5 +11.9 84 +14 +15 1020.2 1017.0
15 14.02 СВ 1 15 км осадки на расстоянии {ливн. осадки} 9/6 750 м
[Sc diur, vesp Ci fib]
+14.4 +11.7 84 +15 +15 1020.1 1016.9
16 14.02 С 2 15 км в посл. час ливневой дождь 8/3 660 м
[Sc diur, vesp Ac cuf]
+13.2 +12.5 96 +13 +13 1020.7 1017.6
17 14.02 З 2 20 км слабый ливневой дождь 9/6 750 м
[Sc diur, vesp Ac cuf]
+13.6 +12.1 91 +13 +13 1021.0 1017.9
18 14.02 ЮЗ 1 15 км слабый ливневой дождь 9/9 1000 м
[Cu med, cong]
+13.4 +11.8 90 +13 +13 1020.9 1017.7 3
19 14.02 С 2 20 км в посл. час ливневой дождь 9/6 1350 м
[Cu med, cong Ac trans]
+13.2 +12.3 94 +13 +13 1021.1 1018.0
20 14.02 С 2 20 км 9/9 1050 м
[Cu med, cong]
+13.1 +12.1 94 +13 +13 1020.8 1017.6
21 14.02 СЗ 1 30 км {ливн. осадки} 9/9 1380 м
[Sc]
+13.2 +12.4 95 +13 +13 1020.9 1017.7
22 14.02 СЗ 2 30 км 8/8 1500 м
[Sc]
+12.7 +11.4 92 +12 +12 1020.8 1017.6
23 14.02 С 2 30 км 4/4 1200 м
[Sc]
+11.7 +10.3 91 +11 +11 1020.5 1017.3
00 15.02 С 2 30 км {ливн. осадки} ясно +11.0 +9.4 90 +10 +10 1020.2 1017.0 0.0
01 15.02 С 2 25 км ясно +10.8 +8.7 87 +9 +9 1019.5 1016.3
02 15.02 С 2 30 км ясно +10.6 +7.6 82 +9 +9 1019.2 1016.0
03 15.02 СВ 1 30 км 1/0
[Ci fib]
+10.0 +7.7 86 +9 +9 1019.3 1016.1
04 15.02 СЗ 2 25 км 1/0
[Ci fib]
+9.8 +7.9 88 +8 +8 1018.8 1015.6
05 15.02 С 2 60 км 6/1 1500 м
[Sc Ac trans Ci sp]
+10.3 +6.9 79 +9 +9 1018.9 1015.7
06 15.02 В 4 60 км 9/0 2000 м
[Ac trans Cs]
+13.0 +9.9 81 +11 +13 1019.5 1016.3 +9.7 0.0
07 15.02 В 7 60 км 9/0
[Ac trans Cs]
+15.4 +9.5 68 +14 +15 1019.5 1016.3
08 15.02 В 6 60 км 8/1 1500 м
[Cu hum Ci fib]
+15.9 +10.7 71 +15 +17 1019.5 1016.3
09 15.02 В 7 50 км 9/1 1500 м
[Cu hum Cs]
+17.5 +12.4 72 +17 +18 1018.8 1015.7
10 15.02 СВ 7 50 км 9/1 1500 м
[Sc Cs]
+17.7 +11.8 68 +17 +19 1017.9 1014.8
11 15.02 В 7 50 км 10/1 2000 м
[Cu hum Cs]
+18.3 +11.9 66 +18 +20 1017.3 1014.2
12 15.02 В 7 50 км 9/1 1200 м
[Sc Cs]
+18.9 +11.9 64 +19 +21 1016.7 1013.6
13 15.02 В 8 50 км 9/1 2000 м
[Cu hum Cs]
+18.8 +12.9 69 +19 +19 1016.3 1013.2
14 15.02 В 8 50 км 8/1 1200 м
[Cu hum Cs]
+18.1 +12.1 68 +17 +17 1015.5 1012.4
15 15.02 В 9 50 км 6/1 1500 м
[Cu hum Ci fib]
+17.6 +10.9 65 +16 +16 1015.4 1012.3
16 15.02 В 7 45 км 3/1 1500 м
[Sc diur, vesp Ci fib]
+16.4 +10.6 69 +15 +15 1015.6 1012.5
17 15.02 СВ 7 45 км ясно +16.1 +8.8 62 +15 +15 1015.9 1012.8
18 15.02 СВ 5 30 км ясно +15.4 +9.1 66 +14 +14 1016.1 1013.0 +19.1
19 15.02 С 3 40 км ясно +13.6 +8.5 71 +13 +13 1016.1 1013.0
20 15.02 С 3 40 км ясно +12.3 +6.8 69 +11 +11 1015.8 1012.6
21 15.02 С 2 40 км ясно +12.0 +6.4 69 +11 +11 1015.5 1012.4
22 15.02 СЗ 2 50 км ясно +11.9 +7.2 73 +11 +11 1015.0 1011.9
23 15.02 С 2 50 км 1/0
[Ac trans]
+12.2 +6.7 69 +11 +11 1014.6 1011.4
00 16.02 СВ 4 30 км 9/0 2000 м
[Ac trans]
+14.3 +9.0 70 +13 +13 1014.1 1011.0
01 16.02 СВ 7 30 км 9/0
[Ac trans]
+16.5 +10.7 69 +15 +15 1013.4 1010.3
02 16.02 СВ 7 20 км 9/0
[Ac trans]
+16.5 +10.9 69 +15 +15 1013.2 1010.1
03 16.02 В 6 20 км 10/3 1500 м
[Sc Ac trans]
+16.5 +11.0 70 +15 +15 1013.3 1010.2
04 16.02 В 7 15 км 9/9 1500 м
[Sc]
+16.5 +11.2 71 +15 +15 1013.2 1010.1
05 16.02 СВ 8 15 км 9/4 1500 м
[Sc Ci fib]
+16.4 +11.2 71 +15 +15 1013.6 1010.5
06 16.02 СВ 8 15 км 10/4 1350 м
[Sc Ci sp]
+16.7 +11.5 71 +15 +16 1013.9 1010.8 +11.5
07 16.02 СВ 10
{13}
20 км 10/1 1200 м
[Sc Cs]
+17.5 +12.1 71 +16 +16 1014.0 1010.9
08 16.02 СВ 9
{13}
20 км 10/4 1200 м
[Sc Cs]
+17.6 +12.3 71 +16 +17 1014.2 1011.1
09 16.02 В 10
{13}
20 км 10/5 750 м
[Cu Sc Cs]
+18.4 +12.9 70 +18 +18 1014.1 1011.0
10 16.02 В 10 25 км 10/5 1050 м
[Cu Sc Cs]
+19.2 +12.9 67 +19 +20 1013.7 1010.7
11 16.02 В 10
{13}
25 км 10/3 900 м
[Cu Sc Cs]
+18.8 +12.8 68 +19 +19 1013.2 1010.2
12 16.02 В 10
{14}
25 км 9/6 960 м
[Sc Ci sp]
+19.2 +11.5 61 +19 +19 1012.9 1009.9
13 16.02 В 9 25 км 10/5 900 м
[Cu Sc Cs]
+18.4 +11.4 64 +18 +18 1013.0 1009.9
14 16.02 В 10
{14}
25 км 10/8 1200 м
[Cu Sc Ci sp]
+17.9 +11.4 66 +17 +17 1012.6 1009.5
15 16.02 В 9
{13}
25 км 10/1 1200 м
[Sc diur, vesp Ac trans Cs]
+17.5 +11.3 67 +16 +16 1012.6 1009.5
16 16.02 В 8 25 км 10/5 600 м
[Cb cap Cs]
+17.1 +11.1 68 +16 +16 1012.8 1009.7
17 16.02 СВ 9 25 км 10/5 750 м
[Cu Sc Cs]
+16.9 +10.8 67 +15 +15 1012.6 1009.5
18 16.02 В 8 20 км зарница 10/5 1020 м
[Cu Sc Cs]
+17.0 +10.8 67 +16 +16 1012.6 1009.5 +19.4
19 16.02 В 9
{13}
20 км зарница 10/6 900 м
[Cb cap Ac As Cs]
+17.2 +11.8 71 +16 +16 1012.4 1009.3
20 16.02 В 9
{14}
20 км зарница 10/5 600 м
[Cb cap Ac As Cs]
+17.0 +13.2 78 +16 +16 1012.7 1009.6
21 16.02 В 7 20 км зарница 10/4 600 м
[Cb cap Ac trans Cs]
+16.9 +13.3 79 +16 +16 1012.8 1009.7
22 16.02 ЮВ 4 20 км зарница 10/6 600 м
[Cb cap Ac trans Cs]
+16.2 +13.0 81 +16 +16 1012.7 1009.6
23 16.02 З 4 18 км гроза без осадков {ливн. осадки} 10/6 600 м
[Cb cap Ac trans Cs]
+15.3 +12.2 82 +14 +14 1012.1 1009.0
00 17.02 З 7 7000 м гроза без осадков 10/9 700 м
[Cb cap Ac trans Cs]
+14.8 +11.4 80 +13 +13 1011.8 1008.7 0.0
01 17.02 В 5
{16}
15 км гроза без осадков {ливн. осадки} 10/9 570 м
[Cb cap Ac trans Cs]
+12.7 +10.8 88 +10 +10 1012.2 1009.1
02 17.02 СЗ 3 7000 м сильная гроза, ливневой дождь 10/10 630 м
[Cb cap]
+11.9 +10.1 89 +10 +10 1011.2 1008.1
03 17.02 ЮЗ 6-14
{14}
15 км гроза, ливневой дождь 10/10 420 м
[Cb cap]
+12.4 +10.4 88 +10 +10 1011.9 1008.7
04 17.02 ЮЗ 4
{14}
5000 м слабый ливневой дождь, в посл. час гроза 10/10 360 м
[Cb cap]
+11.6 +10.4 92 +9 +9 1012.3 1009.2
05 17.02 0 н/о н/о +11.4 +11.0 97 1012.3 1009.1
06 17.02 СЗ 4 7000 м слабый ливневой дождь {гроза} 10/10 300 м
[Cu Sc]
+11.3 +10.7 96 +9 +9 1012.0 1008.9 +11.1 37
07 17.02 З 2 7000 м слабый ливневой дождь 10/10 300 м
[Cu Sc]
+11.2 +10.7 97 +10 +10 1011.9 1008.8
08 17.02 СЗ 4 7000 м слабый ливневой дождь 10/10 540 м
[Cu Sc]
+11.5 +10.5 94 +9 +9 1011.5 1008.3
09 17.02 З 2 15 км в посл. час ливневой дождь 10/10 540 м
[Sc diur, vesp]
+12.4 +11.0 91 +12 +12 1010.9 1007.7
10 17.02 ЮЗ 4 15 км 10/10 840 м
[Cu Sc]
+13.5 +11.6 88 +12 +12 1010.1 1007.0
11 17.02 З 3 15 км в посл. час ливневой дождь 10/10 900 м
[Cu med, cong]
+13.8 +12.1 89 +13 +13 1009.1 1006.0
12 17.02 З 3 н/о н/о +14.9 +11.1 78 +14 +14 1008.7 1005.6 9
13 17.02 З 2 15 км в посл. час ливневой дождь 10/10 300 м
[Cu Sc]
+15.1 +10.6 74 +15 +15 1008.4 1005.3
14 17.02 СЗ 5 15 км 10/6 300 м
[Cu hum Ac trans]
+15.8 +9.4 66 +15 +15 1008.5 1005.4
15 17.02 СЗ 4 20 км {ливн. осадки} 9/6 300 м
[Cu hum Ac trans]
+14.6 +10.1 74 +13 +13 1008.8 1005.7
16 17.02 З 6 20 км 8/3 900 м
[Cu med, cong Ac trans]
+15.6 +10.9 74 +14 +14 1008.9 1005.8
17 17.02 З 7 25 км 6/1 900 м
[Cu med, cong Ac trans]
+15.4 +10.2 71 +14 +14 1009.0 1005.9
18 17.02 З 7 30 км {ливн. осадки} 6/0
[Ac trans]
+15.3 +10.3 72 +14 +14 1008.8 1005.7 +15.8 9
19 17.02 З 8 40 км 6/0
[Ac trans]
+15.4 +10.7 74 +14 +14 1008.5 1005.4
20 17.02 З 8-13
{13}
40 км 1/0
[Ac trans]
+15.2 +11.0 76 +13 +13 1008.3 1005.2
21 17.02 З 7 40 км 1/0
[Ac trans]
+15.1 +11.2 78 +13 +13 1008.2 1005.1
22 17.02 З 7 40 км 1/0
[Ac trans]
+15.5 +10.8 74 +14 +14 1008.3 1005.2
23 17.02 З 7 40 км 1/0
[Ac trans]
+15.9 +11.2 74 +14 +14 1008.2 1005.1
00 18.02 З 7 40 км 3/0
[Ac As]
+15.8 +12.3 80 +14 +14 1008.1 1005.0
01 18.02 З 6 40 км 1/0
[Ac trans]
+15.9 +10.9 72 +15 +15 1007.6 1004.5
02 18.02 З 6 40 км ясно +15.6 +11.2 75 +14 +14 1007.6 1004.5
03 18.02 З 6 40 км ясно +16.0 +10.2 68 +15 +15 1007.8 1004.7
04 18.02 З 4 40 км 1/0
[Ac trans Ci fib]
+14.9 +7.5 61 +14 +14 1008.5 1005.4
05 18.02 З 4 40 км 1/0
[Ac trans]
+14.4 +11.1 81 +13 +14 1008.9 1005.8
06 18.02 СЗ 7 60 км 1/0
[Ac trans]
+16.6 +3.6 42 +15 +16 1009.2 1006.2 +13.3
07 18.02 З 2 60 км ясно +17.7 +7.1 50 +18 +23 1010.0 1006.9
08 18.02 СЗ 2 60 км ясно +19.0 +5.4 41 +20 +28 1010.4 1007.3
09 18.02 ЮЗ 2 60 км ясно +20.4 +5.6 38 +22 +32 комфорт 1010.4 1007.4
10 18.02 Ю 4 60 км 1/1 1500 м
[Cu hum]
+21.5 +5.7 36 +22 +29 комфорт 1010.1 1007.0
12 18.02 ЮЗ 3 60 км ясно +21.9 +8.5 42 +23 +30 комфорт 1009.8 1006.8
14 18.02 СЗ 2 60 км ясно +18.5 +11.8 65 +20 +21 1010.2 1007.1
13 18.02 З 5 60 км ясно +20.5 +8.5 46 +22 +24 комфорт 1010.1 1007.1
15 18.02 С 3 50 км ясно +18.2 +13.6 75 +19 +19 1011.3 1008.2
16 18.02 СЗ 2 50 км ясно +16.7 +13.8 83 +17 +17 1012.1 1009.0
17 18.02 З 1 50 км ясно +16.2 +12.2 77 +17 +17 1012.7 1009.6
18 18.02 З 2 н/о н/о +15.1 +10.0 72 +15 +15 1012.9 1009.8 +22.3
20 18.02 З 6 50 км ясно +15.5 +2.9 43 +14 +14 1013.9 1010.8
19 18.02 З 3 50 км ясно +14.4 +8.5 68 +14 +14 1013.7 1010.6
21 18.02 З 3 50 км ясно +14.4 +6.4 59 +14 +14 1014.3 1011.1
22 18.02 В 1 40 км ясно +11.2 +5.6 68 +12 +12 1014.4 1011.3
23 18.02 З 2 40 км ясно +12.0 +6.6 70 +11 +11 1014.2 1011.1
00 19.02 З 3 н/о н/о +11.3 +6.1 70 +10 +10 1014.1 1010.9
02 19.02 СЗ 1 50 км 1/0
[Ci fib]
+9.1 +5.2 77 +9 +9 1013.4 1010.2
01 19.02 СЗ 3 50 км 1/0
[Ci fib]
+11.2 +6.2 71 +10 +10 1013.3 1010.1
03 19.02 СЗ 2 50 км 1/0
[Ci fib]
+9.1 +5.4 78 +8 +8 1013.6 1010.4

 

Местоположение метеостанции Akrotiri (Кипр): широта 34.58 долгота 32.98 высота над уровнем моря 23 м.

В архиве по умолчанию представлена погода в Akrotiri за последнюю неделю. Архивные данные за месяц целиком и за предыдущие месяцы, начиная с января 2011 года, Вы можете получить, выбрав интересующий диапазон дат из раскрывающегося списка и нажав кнопку "Ввод!".

Внимание! Время в таблицах - всемирное. Для получения местного времени необходимо прибавить поправку, которая в Akrotiri равна 2 ч.

Смотрите также архив погоды в соседних городах и на ближайших метеорологических станциях:

Погода в Paphos (Кипр) (48 км)
Погода в Larnaca (Кипр) (68 км)
Погода в Athalassa (Кипр) (74 км)
Погода в Nicosia (Кипр) (79 км)
Погода в Akdeniz (Кипр) (80 км)
Погода в Kyrenia (Кипр) (91 км)
Погода в Gecitkale (Кипр) (100 км)
Погода в Lefkoniko (Кипр) (101 км)
Погода в Unknown (Кипр) (104 км)
Погода в Famagusta (Кипр) (108 км)

Пояснения к столбцам:

Ветер - указаны скорость ветра в м/с - средняя за 10 мин, порывы в срок и между сроками (в фигурных скобках) и направление, откуда дует ветер: С - северный, СВ - северо-восточный, В - восточный, ЮВ - юго-восточный, Ю - южный, ЮЗ - юго-западный, З - западный, СЗ - северо-западный.
Видимость - горизонтальная дальность видимости в метрах или километрах. При видимости от 1 до 10 км при отсутствии осадков обычно наблюдается дымка, при ухудшении видимости до 1 км и менее - туман. В сухую погоду видимость может ухудшаться дымом, пылью или мглою.
Явления - указаны атмосферные явления, наблюдавшиеся в срок или в последний час перед сроком; фигурными скобками обозначены явления, наблюдавшиеся между сроками (за 1-3 часа до срока); квадратными скобками обозначены град или гололедные отложения с указанием их диаметра в мм.
Облачность - указаны через наклонную черту общая и нижняя облачность в баллах и высота нижней границы облаков в метрах; квадратными скобками обозначены формы облаков: Ci - перистые, Cs - перисто-слоистые, Cc - перисто-кучевые, Ac - высококучевые, As - высокослоистые, Sc - слоисто-кучевые, Ns - слоисто-дождевые, Cu - кучевые, Cb - кучево-дождевые. Подробнее классификацию облаков см. в Атласе облаков (PDF).
T - Температура воздуха - температура, измеренная на высоте 2 м над землей.
Td - Температура точки росы - температура, при понижении до которой содержащийся в воздухе водяной пар достигнет насыщения.
f - Относительная влажность воздуха - влажноcть воздуха, измеренная на высоте 2 м над землей.
Te - Эффективная температура - температура, которую ощущает одетый по сезону человек в тени. Характеристика душности погоды. При расчете учитывается влияние влажности воздуха и скорости ветра на теплоощущения человека.
Tes - Эффективная температура на солнце - температура, которую ощущает человек, с поправкой на солнечный нагрев. Характеристика знойности погоды. Зависит от высоты солнца над горизонтом, облачности и скорости ветра. Ночью, в пасмурную погоду, а также при ветре 12 м/с и более поправка равна нулю.
P - Атмосферное давление - приведенное к уровню моря атмосферное давление.
Po - Атмосферное давление - измеренное на уровне метеостанции атмосферное давление.
Tmin - Минимальная температура - минимум температуры воздуха на высоте 2 м над землей.
Tmax - Максимальная температура - максимум температуры воздуха на высоте 2 м над землей.
R - Количество осадков - Количество выпавших осадков за период времени, мм. При наведении курсора мыши на число - период времени, за который выпало указанное количество осадков.
R24 - Количество осадков - Количество выпавших осадков за 24 часа, мм.
S - Снежный покров - Высота снежного покрова, см. При наведении курсора мыши на число - состояние снежного покрова и степень покрытия местности в баллах.